This is the latest recevied weather packets stored in our database for station/object DB0WUN-13. If no packets are shown the sender has not sent any weather packets the latest 1 day(s).
| Time | Temp. | Humidity | Pressure | Rain* | Wind** | Luminosity | Snow |
|---|---|---|---|---|---|---|---|
| 1778040764 | 10.56° C | 92% | 1007 hPa | 0.25 mm | 2.24 m/s, 251° | 19 W/m² | - |
| 1778040726 | 10.56° C | 92% | 1007 hPa | 0.25 mm | 1.79 m/s, 260° | 18 W/m² | - |
| 1778040689 | 10.56° C | 92% | 1007 hPa | 0.25 mm | 1.79 m/s, 254° | 16 W/m² | - |
| 1778040649 | 10.56° C | 92% | 1007 hPa | 0.25 mm | 2.24 m/s, 251° | 16 W/m² | - |
| 1778040620 | 10.56° C | 92% | 1007 hPa | 0.25 mm | 1.79 m/s, 241° | 14 W/m² | - |
| 1778040575 | 10.56° C | 92% | 1007 hPa | 0.25 mm | 1.79 m/s, 248° | 12 W/m² | - |
| 1778040538 | 10.56° C | 92% | 1007 hPa | 0.25 mm | 1.79 m/s, 269° | 11 W/m² | - |
| 1778040346 | 10.56° C | 92% | 1007 hPa | 0.25 mm | 1.79 m/s, 217° | 9 W/m² | - |
| 1778040283 | 10.56° C | 92% | 1007 hPa | 0.25 mm | 1.79 m/s, 231° | 9 W/m² | - |
| 1778040223 | 10.56° C | 92% | 1007 hPa | 0.25 mm | 1.79 m/s, 218° | 7 W/m² | - |
| 1778040164 | 10.56° C | 92% | 1007 hPa | 0.25 mm | 1.79 m/s, 239° | 5 W/m² | - |
| 1778040112 | 10.56° C | 92% | 1007 hPa | 0.25 mm | 1.79 m/s, 177° | 5 W/m² | - |
| 1778040034 | 10.56° C | 92% | 1007 hPa | 0.25 mm | 1.34 m/s, 241° | 0 W/m² | - |
| 1778039977 | 10.56° C | 92% | 1007.1 hPa | 0.25 mm | 1.34 m/s, 265° | 0 W/m² | - |
| 1778039915 | 10.56° C | 92% | 1007 hPa | 0.25 mm | 1.34 m/s, 269° | 0 W/m² | - |
| 1778039854 | 10.56° C | 92% | 1007.1 hPa | 0.25 mm | 1.34 m/s, 217° | 0 W/m² | - |
| 1778039801 | 10.56° C | 92% | 1007.1 hPa | 0.25 mm | 0.89 m/s, 235° | 0 W/m² | - |
| 1778039735 | 10.56° C | 92% | 1007.1 hPa | 0.25 mm | 0.89 m/s, 269° | 0 W/m² | - |
| 1778039674 | 10.56° C | 92% | 1007.1 hPa | 0.25 mm | 0.89 m/s, 215° | 0 W/m² | - |
| 1778039616 | 10.56° C | 92% | 1007.1 hPa | 0.25 mm | 0.89 m/s, 227° | 0 W/m² | - |
| 1778039559 | 10.56° C | 92% | 1007.1 hPa | 0.25 mm | 0.89 m/s, 236° | 0 W/m² | - |
| 1778039501 | 10.56° C | 92% | 1007.1 hPa | 0.25 mm | 0.89 m/s, 238° | 0 W/m² | - |
| 1778039433 | 10.56° C | 92% | 1007.1 hPa | 0.25 mm | 1.34 m/s, 216° | 0 W/m² | - |
| 1778039375 | 10.56° C | 92% | 1007.1 hPa | 0.25 mm | 1.34 m/s, 216° | 0 W/m² | - |
| 1778039312 | 10.56° C | 92% | 1007 hPa | 0.25 mm | 0.89 m/s, 216° | 0 W/m² | - |
* Rain latest hour (hover to see other rain measurements)
** Current wind speed in m/s (hover to see current wind gust speed)